Home   Weather   São Tomé   Past weeks

Flag for Sao Tome and Principe Past Weather in São Tomé, Sao Tome and Principe — Yesterday and Last 2 Weeks

81 °F

Passing clouds.

Feels Like: 88 °F
Forecast: N/A
Wind: 2 mph from North

Location: S. Tome

Current Time: Oct 22, 2016 at 9:40:31 PM

Latest Report: Oct 22, 2016 at 9:00 PM

Visibility: N/A

Pressure: 29.95 "Hg

Humidity: 94%

Dew Point: 79 °F

Location of São ToméLocation

Past Weather in São Tomé — Graph


São Tomé Temperature Yesterday

Maximum temperature yesterday: 86 °F (at 9:00 AM)
Minimum temperature yesterday: 77 °F (at 12:00 AM)
Average temperature yesterday: 81 °F

High & Low Weather Summary for the Past Weeks

High122 °F (Oct 15, 2:00 PM)100% (Oct 13, 12:00 AM)29.98 "Hg (Oct 13, 12:00 AM)
Low73 °F (Oct 20, 6:00 AM)5% (Oct 15, 2:00 PM)29.80 "Hg (Oct 20, 5:00 PM)
Average82 °F83%29.90 "Hg
* Reported Oct 7 8:00 PM — Oct 22 8:00 PM, São Tomé, Weather by CustomWeather, © 2016

Note: Actual official high and low records may vary slightly from our data, if they occured in-between our weather recording intervals... More about our weather records


São Tomé Weather History for the Previous 24 Hours

Scroll right to see more
Time TempWeatherWind HumidityBarometerVisibility
8:00 PM
Sat, Oct 22
81 °FPassing clouds.6 mph89%29.92 "HgN/A
7:00 PM81 °FPassing clouds.7 mph89%29.92 "HgN/A
6:00 PM81 °FPassing clouds.7 mph89%29.89 "HgN/A
5:00 PM82 °FPartly sunny.14 mph84%29.86 "HgN/A
4:00 PM82 °FPartly sunny.9 mph79%29.86 "HgN/A
3:00 PM82 °FScattered clouds.7 mph84%29.86 "HgN/A
2:00 PM84 °FScattered clouds.16 mph74%29.89 "HgN/A
1:00 PM82 °FScattered clouds.18 mph89%29.89 "HgN/A
12:00 PM84 °FScattered clouds.16 mph79%29.92 "HgN/A
11:00 AM84 °FPartly sunny.18 mph79%29.95 "HgN/A
10:00 AM84 °FThunderstorms. Partly sunny.14 mph79%29.95 "HgN/A
9:00 AM84 °FThunderstorms. Partly sunny.12 mph79%29.98 "HgN/A
8:00 AM82 °FThunderstorms. Partly sunny.12 mph79%29.98 "HgN/A
7:00 AM81 °FThunderstorms. Partly sunny.12 mph84%29.95 "HgN/A
6:00 AM79 °FThunderstorms. Partly sunny.9 mph84%29.92 "HgN/A
5:00 AM77 °FThunderstorms. Passing clouds.12 mph89%29.92 "HgN/A
4:00 AM77 °FPassing clouds.5 mph89%29.92 "HgN/A
Weather by CustomWeather, © 2016

See weather overviewHow to use our weather pages